UAL617 KDCA-KPBI

Flight info

Callsign UAL617
Flight time 2h 9m
Altitude 32000
Route AMEEE1 SCOOB PAACK Q97 KENLL CPTAN3
Aircraft B738/M-SDE2E3FGHIRWXY/LB1

Departure

Time 2026-05-03 22:08
Airport Ronald Reagan Washington National Airport (KDCA)

Arrival

Time 2026-05-04 00:17
Airport Palm Beach International Airport (KPBI)
Time Latitude Longitude Altitude Speed Heading
2026-05-03 21:29 38.85359 -77.04151 27 ft 0 kts 348°
2026-05-03 21:40 38.85354 -77.04150 28 ft 2 kts 348°
2026-05-03 21:41 38.85339 -77.04145 28 ft 2 kts 355°
2026-05-03 21:41 38.85325 -77.04150 28 ft 2 kts 34°
2026-05-03 21:41 38.85315 -77.04164 28 ft 1 kts 66°
2026-05-03 21:41 38.85313 -77.04171 28 ft 1 kts 75°
2026-05-03 21:42 38.85312 -77.04175 28 ft 0 kts 72°
2026-05-03 22:02 38.85319 -77.04142 28 ft 8 kts 80°
2026-05-03 22:02 38.85330 -77.04059 28 ft 10 kts 79°
2026-05-03 22:02 38.85332 -77.04041 28 ft 0 kts 78°
2026-05-03 22:02 38.85336 -77.04005 28 ft 5 kts 92°
2026-05-03 22:03 38.85316 -77.03958 28 ft 9 kts 143°
2026-05-03 22:03 38.85254 -77.03931 28 ft 9 kts 168°
2026-05-03 22:03 38.85160 -77.03918 28 ft 22 kts 176°
2026-05-03 22:03 38.84976 -77.03900 28 ft 27 kts 175°
2026-05-03 22:04 38.84788 -77.03881 28 ft 26 kts 176°
2026-05-03 22:04 38.84609 -77.03861 28 ft 25 kts 175°
2026-05-03 22:04 38.84437 -77.03844 28 ft 24 kts 175°
2026-05-03 22:04 38.84282 -77.03825 28 ft 18 kts 174°
2026-05-03 22:05 38.84232 -77.03812 28 ft 0 kts 143°
2026-05-03 22:06 38.84206 -77.03776 28 ft 12 kts 129°
2026-05-03 22:07 38.84170 -77.03697 28 ft 6 kts 89°
2026-05-03 22:07 38.84185 -77.03681 28 ft 1 kts
2026-05-03 22:07 38.84188 -77.03681 28 ft 0 kts
2026-05-03 22:07 38.84342 -77.03697 28 ft 61 kts 353°
2026-05-03 22:08 38.85031 -77.03771 28 ft 135 kts 354°
2026-05-03 22:08 38.86163 -77.03853 210 ft 179 kts 353°
2026-05-03 22:08 38.87328 -77.04183 1036 ft 172 kts 327°
2026-05-03 22:08 38.88230 -77.05222 1634 ft 186 kts 312°
2026-05-03 22:09 38.89141 -77.06366 2303 ft 188 kts 319°
2026-05-03 22:09 38.90202 -77.07459 2750 ft 203 kts 313°
2026-05-03 22:09 38.90993 -77.09018 3201 ft 217 kts 295°
2026-05-03 22:10 38.92870 -77.12272 4338 ft 247 kts 327°
2026-05-03 22:10 38.94397 -77.13349 5099 ft 255 kts 332°
2026-05-03 22:10 38.96023 -77.14249 5921 ft 260 kts 340°
2026-05-03 22:10 38.97808 -77.14612 6771 ft 266 kts 358°
2026-05-03 22:11 38.99650 -77.14189 7609 ft 275 kts 16°
2026-05-03 22:11 39.01328 -77.12981 8426 ft 283 kts 32°
2026-05-03 22:11 39.02757 -77.11243 9239 ft 291 kts 50°
2026-05-03 22:11 39.03638 -77.08878 10005 ft 302 kts 71°
2026-05-03 22:12 39.03908 -77.06152 10549 ft 319 kts 86°
2026-05-03 22:12 39.03785 -77.03239 10968 ft 336 kts 94°
2026-05-03 22:12 39.03240 -77.00246 11337 ft 355 kts 111°
2026-05-03 22:12 39.01990 -76.97414 11733 ft 371 kts 128°
2026-05-03 22:13 39.00187 -76.94956 12095 ft 386 kts 140°
2026-05-03 22:13 38.97960 -76.92928 12439 ft 398 kts 155°
2026-05-03 22:13 38.95355 -76.91587 12754 ft 410 kts 165°
2026-05-03 22:13 38.92577 -76.90518 13152 ft 422 kts 167°
2026-05-03 22:14 38.89737 -76.89531 13782 ft 427 kts 168°
2026-05-03 22:14 38.86856 -76.88539 14505 ft 431 kts 168°
2026-05-03 22:14 38.83927 -76.87511 15235 ft 434 kts 168°
2026-05-03 22:14 38.81014 -76.86463 15910 ft 438 kts 168°
2026-05-03 22:15 38.78066 -76.85381 16546 ft 443 kts 168°
2026-05-03 22:15 38.75090 -76.84273 17200 ft 447 kts 168°
2026-05-03 22:15 38.72093 -76.83148 17863 ft 450 kts 168°
2026-05-03 22:15 38.69071 -76.82008 18479 ft 454 kts 168°
2026-05-03 22:16 38.66014 -76.80854 19082 ft 459 kts 169°
2026-05-03 22:16 38.62900 -76.79680 19629 ft 465 kts 169°
2026-05-03 22:16 38.59786 -76.78509 20216 ft 468 kts 169°
2026-05-03 22:16 38.56644 -76.77326 20785 ft 472 kts 169°
2026-05-03 22:17 38.53479 -76.76137 21314 ft 476 kts 169°
2026-05-03 22:17 38.50291 -76.74940 21791 ft 481 kts 169°
2026-05-03 22:17 38.47055 -76.73727 22304 ft 484 kts 169°
2026-05-03 22:17 38.43800 -76.72520 22784 ft 489 kts 169°
2026-05-03 22:18 38.40476 -76.71427 23236 ft 490 kts 173°
2026-05-03 22:18 38.37124 -76.70612 23786 ft 489 kts 177°
2026-05-03 22:18 38.33744 -76.69976 24230 ft 492 kts 179°
2026-05-03 22:18 38.30342 -76.69434 24686 ft 494 kts 180°
2026-05-03 22:19 38.26930 -76.68931 25158 ft 497 kts 180°
2026-05-03 22:19 38.23498 -76.68436 25696 ft 497 kts 180°
2026-05-03 22:19 38.20079 -76.67934 26435 ft 493 kts 181°
2026-05-03 22:19 38.16669 -76.67420 27122 ft 489 kts 181°
2026-05-03 22:20 38.13304 -76.66903 27762 ft 486 kts 181°
2026-05-03 22:20 38.09939 -76.66381 28278 ft 486 kts 182°
2026-05-03 22:20 38.06593 -76.65949 28751 ft 483 kts 184°
2026-05-03 22:20 38.03249 -76.65665 29253 ft 480 kts 186°
2026-05-03 22:21 37.99938 -76.65463 29821 ft 476 kts 187°
2026-05-03 22:21 37.96644 -76.65290 30392 ft 472 kts 188°
2026-05-03 22:21 37.93330 -76.65122 30870 ft 470 kts 188°
2026-05-03 22:21 37.90074 -76.64951 31353 ft 467 kts 188°
2026-05-03 22:22 37.86850 -76.64769 31864 ft 462 kts 188°
2026-05-03 22:22 37.83633 -76.64582 32045 ft 463 kts 188°
2026-05-03 22:22 37.80373 -76.64392 32065 ft 465 kts 188°
2026-05-03 22:23 37.73923 -76.63989 32059 ft 461 kts 187°
2026-05-03 22:23 37.67468 -76.63574 32059 ft 464 kts 188°
2026-05-03 22:24 37.61064 -76.63354 32067 ft 453 kts 193°
2026-05-03 22:24 37.57963 -76.63740 32065 ft 442 kts 200°
2026-05-03 22:24 37.54974 -76.64526 32065 ft 436 kts 205°
2026-05-03 22:25 37.49180 -76.66632 32065 ft 431 kts 208°
2026-05-03 22:25 37.43473 -76.68928 32077 ft 428 kts 208°
2026-05-03 22:26 37.37781 -76.71201 32069 ft 431 kts 208°
2026-05-03 22:26 37.29015 -76.74620 32077 ft 430 kts 207°
2026-05-03 22:27 37.17543 -76.79029 32073 ft 429 kts 207°
2026-05-03 22:27 37.06132 -76.83368 32078 ft 428 kts 207°
2026-05-03 22:28 36.94704 -76.87712 32079 ft 429 kts 207°
2026-05-03 22:28 36.83310 -76.92025 32080 ft 428 kts 207°
2026-05-03 22:29 36.71962 -76.96308 32071 ft 427 kts 207°
2026-05-03 22:29 36.60522 -77.00623 32071 ft 428 kts 207°
2026-05-03 22:30 36.49099 -77.04906 32068 ft 427 kts 207°
2026-05-03 22:30 36.37699 -77.09165 32074 ft 426 kts 207°
2026-05-03 22:31 36.26325 -77.13408 32077 ft 426 kts 207°
2026-05-03 22:31 36.15004 -77.17612 32077 ft 423 kts 207°
2026-05-03 22:32 36.03625 -77.21836 32079 ft 426 kts 206°
2026-05-03 22:32 35.92421 -77.26351 32088 ft 414 kts 213°
2026-05-03 22:32 35.87505 -77.29757 32095 ft 403 kts 223°
2026-05-03 22:33 35.83094 -77.33974 32093 ft 399 kts 228°
2026-05-03 22:33 35.74790 -77.42954 32098 ft 397 kts 228°
2026-05-03 22:34 35.66147 -77.51654 32095 ft 401 kts 226°
2026-05-03 22:34 35.57298 -77.60036 32100 ft 401 kts 225°
2026-05-03 22:35 35.48454 -77.68401 32097 ft 401 kts 225°
2026-05-03 22:35 35.39600 -77.76834 32100 ft 400 kts 225°
2026-05-03 22:36 35.30786 -77.85216 32106 ft 402 kts 225°
2026-05-03 22:36 35.22098 -77.93444 32100 ft 401 kts 225°
2026-05-03 22:37 35.17677 -77.97625 32094 ft 402 kts 225°
2026-05-03 22:37 35.13245 -78.01805 32103 ft 401 kts 225°
2026-05-03 22:38 35.08833 -78.05961 32107 ft 401 kts 224°
2026-05-03 22:38 35.04397 -78.10141 32098 ft 403 kts 224°
2026-05-03 22:39 34.99957 -78.14311 32091 ft 401 kts 224°
2026-05-03 22:39 34.95527 -78.18467 32101 ft 401 kts 224°
2026-05-03 22:40 34.91108 -78.22608 32096 ft 401 kts 224°
2026-05-03 22:40 34.86682 -78.26748 32093 ft 401 kts 224°
2026-05-03 22:41 34.82245 -78.30891 32100 ft 401 kts 224°
2026-05-03 22:41 34.77814 -78.35028 32095 ft 400 kts 224°
2026-05-03 22:42 34.73394 -78.39146 32090 ft 401 kts 224°
2026-05-03 22:42 34.68955 -78.43276 32101 ft 402 kts 224°
2026-05-03 22:43 34.64520 -78.47397 32091 ft 401 kts 224°
2026-05-03 22:43 34.60096 -78.51499 32101 ft 399 kts 224°
2026-05-03 22:44 34.55665 -78.55607 32100 ft 402 kts 224°
2026-05-03 22:44 34.51231 -78.59708 32100 ft 399 kts 224°
2026-05-03 22:45 34.46818 -78.63788 32102 ft 399 kts 224°
2026-05-03 22:45 34.42404 -78.67866 32108 ft 401 kts 224°
2026-05-03 22:46 34.41748 -78.68472 32109 ft 401 kts 224°
2026-05-03 22:46 34.37248 -78.72485 32106 ft 402 kts 221°
2026-05-03 22:47 34.34653 -78.74650 32114 ft 403 kts 221°
2026-05-03 22:48 34.34358 -78.74893 32113 ft 403 kts 221°
2026-05-03 22:48 34.30027 -78.78447 32107 ft 400 kts 221°
2026-05-03 22:49 34.28509 -78.79694 32109 ft 401 kts 221°
2026-05-03 22:49 34.23882 -78.83516 32112 ft 401 kts 221°
2026-05-03 22:50 34.19267 -78.87337 32103 ft 401 kts 221°
2026-05-03 22:50 34.14670 -78.91152 32106 ft 400 kts 221°
2026-05-03 22:51 34.10675 -78.94472 32101 ft 401 kts 221°
2026-05-03 22:51 34.07243 -78.97320 32105 ft 401 kts 221°
2026-05-03 22:52 34.02653 -79.01127 32111 ft 402 kts 221°
2026-05-03 22:52 33.98049 -79.04938 32121 ft 401 kts 221°
2026-05-03 22:53 33.93432 -79.08758 32117 ft 401 kts 221°
2026-05-03 22:53 33.88865 -79.12529 32117 ft 397 kts 221°
2026-05-03 22:54 33.84289 -79.16302 32113 ft 401 kts 221°
2026-05-03 22:54 33.79725 -79.20058 32117 ft 395 kts 221°
2026-05-03 22:55 33.75158 -79.23818 32120 ft 398 kts 221°
2026-05-03 22:55 33.70593 -79.27571 32112 ft 399 kts 221°
2026-05-03 22:56 33.66030 -79.31327 32114 ft 395 kts 221°
2026-05-03 22:56 33.61508 -79.35160 32111 ft 397 kts 222°
2026-05-03 22:57 33.57004 -79.39009 32104 ft 397 kts 222°
2026-05-03 22:57 33.52505 -79.42840 32116 ft 395 kts 222°
2026-05-03 22:58 33.48006 -79.46658 32116 ft 396 kts 222°
2026-05-03 22:58 33.43486 -79.50482 32114 ft 396 kts 221°
2026-05-03 22:59 33.38983 -79.54285 32120 ft 396 kts 221°
2026-05-03 22:59 33.34491 -79.58075 32120 ft 395 kts 221°
2026-05-03 23:00 33.29971 -79.61883 32118 ft 396 kts 221°
2026-05-03 23:00 33.25466 -79.65673 32121 ft 396 kts 221°
2026-05-03 23:01 33.20942 -79.69478 32117 ft 397 kts 221°
2026-05-03 23:01 33.16427 -79.73266 32118 ft 396 kts 221°
2026-05-03 23:02 33.11901 -79.77060 32119 ft 396 kts 221°
2026-05-03 23:02 33.07403 -79.80825 32121 ft 396 kts 221°
2026-05-03 23:03 33.02886 -79.84607 32124 ft 397 kts 220°
2026-05-03 23:03 32.98363 -79.88382 32125 ft 396 kts 221°
2026-05-03 23:04 32.93852 -79.92141 32127 ft 395 kts 221°
2026-05-03 23:04 32.89348 -79.95894 32124 ft 397 kts 220°
2026-05-03 23:05 32.84837 -79.99646 32125 ft 395 kts 221°
2026-05-03 23:05 32.80304 -80.03411 32127 ft 396 kts 221°
2026-05-03 23:06 32.75785 -80.07162 32125 ft 396 kts 221°
2026-05-03 23:06 32.71255 -80.10916 32123 ft 398 kts 220°
2026-05-03 23:07 32.66714 -80.14673 32126 ft 395 kts 220°
2026-05-03 23:07 32.62195 -80.18405 32124 ft 397 kts 221°
2026-05-03 23:08 32.57651 -80.22155 32123 ft 395 kts 220°
2026-05-03 23:08 32.53129 -80.25885 32119 ft 396 kts 220°
2026-05-03 23:09 32.48398 -80.29350 32117 ft 402 kts 215°
2026-05-03 23:09 32.43453 -80.32423 32122 ft 401 kts 214°
2026-05-03 23:10 32.38483 -80.35474 32120 ft 402 kts 214°
2026-05-03 23:10 32.33516 -80.38564 32125 ft 403 kts 214°
2026-05-03 23:11 32.28583 -80.41657 32126 ft 401 kts 214°
2026-05-03 23:11 32.23661 -80.44755 32127 ft 401 kts 214°
2026-05-03 23:12 32.18733 -80.47856 32128 ft 401 kts 214°
2026-05-03 23:12 32.13790 -80.50964 32128 ft 402 kts 214°
2026-05-03 23:13 32.08863 -80.54058 32125 ft 403 kts 214°
2026-05-03 23:13 32.03930 -80.57149 32125 ft 402 kts 214°
2026-05-03 23:14 31.98971 -80.60250 32133 ft 401 kts 214°
2026-05-03 23:14 31.94025 -80.63346 32119 ft 402 kts 214°
2026-05-03 23:15 31.89104 -80.66420 32125 ft 401 kts 214°
2026-05-03 23:15 31.84170 -80.69500 32123 ft 401 kts 214°
2026-05-03 23:16 31.79208 -80.72592 32128 ft 402 kts 214°
2026-05-03 23:16 31.74273 -80.75665 32120 ft 404 kts 214°
2026-05-03 23:17 31.69330 -80.78738 32128 ft 401 kts 214°
2026-05-03 23:17 31.64398 -80.81799 32125 ft 402 kts 214°
2026-05-03 23:18 31.59465 -80.84860 32127 ft 401 kts 214°
2026-05-03 23:18 31.54535 -80.87913 32120 ft 401 kts 214°
2026-05-03 23:19 31.49612 -80.90958 32125 ft 400 kts 214°
2026-05-03 23:19 31.44665 -80.94017 32118 ft 402 kts 214°
2026-05-03 23:20 31.39729 -80.97063 32119 ft 400 kts 214°
2026-05-03 23:20 31.34818 -81.00091 32125 ft 400 kts 214°
2026-05-03 23:21 31.29864 -81.03134 32122 ft 401 kts 214°
2026-05-03 23:21 31.24645 -81.05630 32118 ft 414 kts 202°
2026-05-03 23:22 31.15898 -81.06508 32118 ft 429 kts 189°
2026-05-03 23:22 31.09935 -81.06552 32119 ft 426 kts 189°
2026-05-03 23:23 31.04009 -81.06603 32120 ft 426 kts 189°
2026-05-03 23:23 30.98081 -81.06692 32121 ft 428 kts 189°
2026-05-03 23:24 30.92139 -81.06799 32123 ft 427 kts 190°
2026-05-03 23:24 30.86325 -81.06916 32120 ft 425 kts 190°
2026-05-03 23:25 30.80658 -81.07030 32113 ft 423 kts 190°
2026-05-03 23:25 30.74665 -81.07153 32113 ft 424 kts 190°
2026-05-03 23:26 30.68778 -81.07271 32115 ft 423 kts 190°
2026-05-03 23:26 30.62878 -81.07398 32112 ft 425 kts 190°
2026-05-03 23:27 30.56990 -81.07649 32115 ft 425 kts 192°
2026-05-03 23:27 30.51085 -81.08031 32110 ft 420 kts 192°
2026-05-03 23:28 30.45245 -81.08413 32107 ft 422 kts 192°
2026-05-03 23:28 30.39376 -81.08789 32106 ft 423 kts 192°
2026-05-03 23:29 30.33540 -81.09144 32107 ft 421 kts 192°
2026-05-03 23:29 30.27662 -81.09502 32103 ft 422 kts 192°
2026-05-03 23:30 30.21805 -81.09856 32108 ft 423 kts 192°
2026-05-03 23:30 30.15935 -81.10206 32108 ft 420 kts 192°
2026-05-03 23:31 30.10085 -81.10554 32103 ft 420 kts 192°
2026-05-03 23:31 30.04235 -81.10905 32108 ft 421 kts 192°
2026-05-03 23:32 29.98381 -81.11253 32101 ft 418 kts 193°
2026-05-03 23:32 29.92550 -81.11600 32095 ft 419 kts 193°
2026-05-03 23:33 29.86760 -81.11945 32103 ft 421 kts 193°
2026-05-03 23:33 29.80980 -81.12280 32106 ft 417 kts 192°
2026-05-03 23:34 29.75146 -81.12396 32108 ft 421 kts 190°
2026-05-03 23:34 29.69264 -81.12386 32094 ft 421 kts 190°
2026-05-03 23:35 29.63418 -81.12374 32096 ft 422 kts 190°
2026-05-03 23:35 29.57501 -81.11864 32106 ft 432 kts 181°
2026-05-03 23:36 29.51602 -81.10080 32102 ft 444 kts 173°
2026-05-03 23:36 29.45724 -81.07696 32096 ft 447 kts 171°
2026-05-03 23:37 29.39874 -81.05209 32099 ft 449 kts 171°
2026-05-03 23:37 29.34018 -81.02731 32095 ft 449 kts 171°
2026-05-03 23:38 29.28144 -81.00272 32103 ft 447 kts 171°
2026-05-03 23:38 29.22287 -80.97843 32098 ft 443 kts 172°
2026-05-03 23:39 29.16496 -80.95449 32095 ft 442 kts 172°
2026-05-03 23:39 29.10668 -80.93061 32100 ft 446 kts 172°
2026-05-03 23:40 29.04811 -80.90658 32102 ft 443 kts 172°
2026-05-03 23:40 28.99044 -80.88286 32093 ft 441 kts 172°
2026-05-03 23:41 28.93193 -80.85901 32090 ft 448 kts 172°
2026-05-03 23:41 28.87364 -80.83507 32099 ft 443 kts 172°
2026-05-03 23:42 28.84437 -80.82312 31916 ft 449 kts 172°
2026-05-03 23:42 28.81495 -80.81115 31672 ft 449 kts 172°
2026-05-03 23:42 28.78756 -80.79996 31446 ft 444 kts 171°
2026-05-03 23:42 28.75843 -80.78804 31201 ft 446 kts 171°
2026-05-03 23:43 28.72905 -80.77610 30956 ft 449 kts 171°
2026-05-03 23:43 28.69956 -80.76410 30730 ft 449 kts 170°
2026-05-03 23:43 28.66987 -80.75201 30482 ft 450 kts 170°
2026-05-03 23:43 28.64016 -80.73995 30248 ft 453 kts 169°
2026-05-03 23:44 28.61062 -80.72795 30009 ft 450 kts 169°
2026-05-03 23:44 28.58095 -80.71589 29774 ft 455 kts 169°
2026-05-03 23:44 28.55104 -80.70377 29541 ft 457 kts 169°
2026-05-03 23:44 28.52108 -80.69161 29274 ft 455 kts 168°
2026-05-03 23:45 28.49116 -80.67945 29011 ft 458 kts 169°
2026-05-03 23:45 28.46085 -80.66716 28738 ft 458 kts 168°
2026-05-03 23:45 28.43091 -80.65500 28474 ft 457 kts 168°
2026-05-03 23:45 28.40089 -80.64282 28209 ft 456 kts 168°
2026-05-03 23:46 28.37062 -80.63060 27948 ft 464 kts 168°
2026-05-03 23:46 28.34023 -80.61834 27686 ft 462 kts 168°
2026-05-03 23:46 28.30993 -80.60607 27420 ft 463 kts 168°
2026-05-03 23:46 28.27960 -80.59380 27149 ft 463 kts 168°
2026-05-03 23:47 28.24888 -80.58140 26888 ft 466 kts 168°
2026-05-03 23:47 28.21827 -80.56906 26630 ft 468 kts 168°
2026-05-03 23:47 28.18760 -80.55669 26365 ft 466 kts 168°
2026-05-03 23:47 28.15712 -80.54438 26103 ft 466 kts 168°
2026-05-03 23:48 28.12632 -80.53198 25848 ft 470 kts 168°
2026-05-03 23:48 28.09549 -80.51958 25576 ft 470 kts 168°
2026-05-03 23:48 28.06470 -80.50718 25315 ft 472 kts 168°
2026-05-03 23:48 28.03339 -80.49462 25060 ft 475 kts 167°
2026-05-03 23:49 28.00234 -80.48214 24798 ft 469 kts 167°
2026-05-03 23:49 27.97201 -80.46986 24532 ft 456 kts 168°
2026-05-03 23:49 27.94258 -80.45790 24273 ft 442 kts 168°
2026-05-03 23:49 27.91407 -80.44633 24037 ft 428 kts 168°
2026-05-03 23:50 27.88654 -80.43518 23818 ft 415 kts 168°
2026-05-03 23:50 27.86857 -80.42791 23717 ft 406 kts 168°
2026-05-03 23:50 27.83359 -80.41384 23259 ft 396 kts 169°
2026-05-03 23:50 27.80921 -80.40412 22829 ft 392 kts 168°
2026-05-03 23:51 27.78359 -80.39395 22278 ft 391 kts 168°
2026-05-03 23:51 27.75810 -80.38384 21810 ft 387 kts 168°
2026-05-03 23:51 27.73273 -80.37378 21293 ft 385 kts 168°
2026-05-03 23:51 27.70754 -80.36376 20833 ft 382 kts 168°
2026-05-03 23:52 27.68254 -80.35381 20386 ft 378 kts 168°
2026-05-03 23:52 27.65775 -80.34367 19902 ft 376 kts 166°
2026-05-03 23:52 27.63351 -80.33215 19409 ft 376 kts 163°
2026-05-03 23:52 27.60988 -80.31973 18896 ft 375 kts 162°
2026-05-03 23:53 27.58639 -80.30695 18402 ft 373 kts 161°
2026-05-03 23:53 27.56320 -80.29425 17950 ft 369 kts 161°
2026-05-03 23:53 27.54012 -80.28169 17431 ft 367 kts 161°
2026-05-03 23:53 27.51718 -80.26937 16923 ft 365 kts 161°
2026-05-03 23:54 27.49414 -80.25715 16426 ft 363 kts 161°
2026-05-03 23:54 27.47145 -80.24513 15989 ft 359 kts 161°
2026-05-03 23:54 27.44894 -80.23324 15469 ft 358 kts 161°
2026-05-03 23:54 27.42645 -80.22139 14992 ft 356 kts 161°
2026-05-03 23:55 27.40418 -80.20967 14538 ft 352 kts 160°
2026-05-03 23:55 27.38214 -80.19808 14105 ft 349 kts 160°
2026-05-03 23:55 27.36016 -80.18653 13620 ft 347 kts 160°
2026-05-03 23:55 27.33816 -80.17499 13149 ft 345 kts 159°
2026-05-03 23:56 27.31647 -80.16359 12702 ft 342 kts 159°
2026-05-03 23:56 27.29528 -80.15244 12521 ft 331 kts 159°
2026-05-03 23:56 27.27472 -80.14160 12329 ft 321 kts 159°
2026-05-03 23:56 27.25488 -80.13107 12178 ft 310 kts 160°
2026-05-03 23:57 27.23560 -80.12121 12045 ft 299 kts 161°
2026-05-03 23:57 27.21683 -80.11208 11850 ft 291 kts 162°
2026-05-03 23:57 27.19809 -80.10318 11491 ft 290 kts 162°
2026-05-03 23:57 27.17950 -80.09443 11112 ft 290 kts 162°
2026-05-03 23:58 27.16087 -80.08573 10730 ft 291 kts 161°
2026-05-03 23:58 27.14224 -80.07694 10344 ft 291 kts 161°
2026-05-03 23:58 27.12361 -80.06796 10007 ft 290 kts 160°
2026-05-03 23:58 27.10519 -80.05886 9664 ft 289 kts 160°
2026-05-03 23:59 27.08681 -80.04972 9322 ft 288 kts 160°
2026-05-03 23:59 27.06845 -80.04060 9015 ft 286 kts 160°
2026-05-03 23:59 27.05031 -80.03160 8702 ft 284 kts 160°
2026-05-03 23:59 27.03229 -80.02272 8366 ft 283 kts 160°
2026-05-04 00:00 27.01431 -80.01392 8050 ft 281 kts 160°
2026-05-04 00:00 26.99649 -80.00518 7732 ft 279 kts 160°
2026-05-04 00:00 26.97880 -79.99655 7441 ft 276 kts 162°
2026-05-04 00:00 26.96064 -79.99050 7104 ft 270 kts 176°
2026-05-04 00:01 26.94238 -79.99230 6776 ft 258 kts 206°
2026-05-04 00:01 26.92758 -80.00281 6477 ft 250 kts 222°
2026-05-04 00:01 26.91422 -80.01544 6122 ft 251 kts 222°
2026-05-04 00:01 26.90068 -80.02770 5787 ft 251 kts 220°
2026-05-04 00:02 26.88708 -80.03955 5375 ft 255 kts 219°
2026-05-04 00:02 26.87296 -80.05165 4968 ft 258 kts 219°
2026-05-04 00:02 26.85863 -80.06391 4555 ft 262 kts 218°
2026-05-04 00:02 26.84402 -80.07646 4194 ft 263 kts 218°
2026-05-04 00:03 26.82968 -80.08890 4009 ft 257 kts 218°
2026-05-04 00:03 26.81625 -80.10137 3988 ft 245 kts 224°
2026-05-04 00:03 26.80636 -80.11618 3998 ft 230 kts 248°
2026-05-04 00:03 26.80360 -80.13287 4007 ft 214 kts 269°
2026-05-04 00:04 26.80325 -80.14941 3996 ft 211 kts 269°
2026-05-04 00:04 26.80270 -80.16581 3995 ft 213 kts 269°
2026-05-04 00:04 26.80219 -80.18223 3995 ft 208 kts 270°
2026-05-04 00:04 26.80171 -80.19873 3996 ft 213 kts 270°
2026-05-04 00:05 26.80118 -80.21512 3997 ft 210 kts 269°
2026-05-04 00:05 26.80069 -80.23150 3847 ft 213 kts 269°
2026-05-04 00:05 26.80014 -80.24798 3605 ft 212 kts 270°
2026-05-04 00:05 26.79949 -80.26455 3362 ft 214 kts 270°
2026-05-04 00:06 26.79883 -80.28117 3121 ft 215 kts 270°
2026-05-04 00:06 26.79803 -80.29788 2989 ft 212 kts 269°
2026-05-04 00:06 26.79720 -80.31454 2995 ft 216 kts 269°
2026-05-04 00:06 26.79639 -80.33132 2997 ft 214 kts 269°
2026-05-04 00:07 26.79563 -80.34760 2997 ft 206 kts 270°
2026-05-04 00:07 26.79489 -80.36350 2998 ft 205 kts 270°
2026-05-04 00:07 26.79410 -80.37951 2997 ft 206 kts 270°
2026-05-04 00:07 26.79337 -80.39553 3001 ft 206 kts 270°
2026-05-04 00:08 26.79254 -80.41146 2997 ft 202 kts 269°
2026-05-04 00:08 26.79044 -80.42708 2993 ft 207 kts 251°
2026-05-04 00:08 26.78186 -80.43973 2999 ft 208 kts 213°
2026-05-04 00:08 26.76856 -80.44500 3000 ft 201 kts 183°
2026-05-04 00:09 26.75459 -80.44635 2999 ft 202 kts 181°
2026-05-04 00:09 26.74049 -80.44791 2995 ft 202 kts 182°
2026-05-04 00:09 26.72645 -80.44948 2995 ft 203 kts 183°
2026-05-04 00:09 26.71235 -80.45028 2993 ft 200 kts 168°
2026-05-04 00:10 26.69999 -80.44431 2997 ft 191 kts 133°
2026-05-04 00:10 26.69401 -80.43168 2995 ft 184 kts 93°
2026-05-04 00:10 26.69486 -80.41787 2998 ft 178 kts 81°
2026-05-04 00:10 26.69551 -80.40402 2995 ft 180 kts 88°
2026-05-04 00:11 26.69506 -80.39014 2995 ft 178 kts 89°
2026-05-04 00:11 26.69453 -80.37633 2994 ft 181 kts 89°
2026-05-04 00:11 26.69401 -80.36217 2996 ft 179 kts 90°
2026-05-04 00:11 26.69346 -80.34828 2998 ft 178 kts 89°
2026-05-04 00:12 26.69286 -80.33450 2995 ft 180 kts 90°
2026-05-04 00:12 26.69227 -80.32051 2994 ft 180 kts 89°
2026-05-04 00:12 26.69170 -80.30648 2995 ft 178 kts 89°
2026-05-04 00:12 26.69112 -80.29272 3001 ft 181 kts 89°
2026-05-04 00:13 26.69053 -80.27881 2987 ft 175 kts 89°
2026-05-04 00:13 26.68994 -80.26550 2824 ft 166 kts 89°
2026-05-04 00:13 26.68939 -80.25272 2572 ft 163 kts 88°
2026-05-04 00:13 26.68884 -80.24038 2362 ft 157 kts 88°
2026-05-04 00:14 26.68832 -80.22880 2181 ft 145 kts 87°
2026-05-04 00:14 26.68797 -80.21752 1971 ft 145 kts 86°
2026-05-04 00:14 26.68748 -80.20629 1783 ft 146 kts 88°
2026-05-04 00:14 26.68690 -80.19501 1590 ft 145 kts 88°
2026-05-04 00:15 26.68642 -80.18363 1395 ft 145 kts 87°
2026-05-04 00:15 26.68602 -80.17236 1207 ft 147 kts 88°
2026-05-04 00:15 26.68546 -80.16095 1010 ft 148 kts 89°
2026-05-04 00:15 26.68500 -80.14944 819 ft 150 kts 88°
2026-05-04 00:16 26.68453 -80.13771 614 ft 152 kts 90°
2026-05-04 00:16 26.68382 -80.12600 407 ft 153 kts 90°
2026-05-04 00:16 26.68346 -80.11425 266 ft 152 kts 89°
2026-05-04 00:16 26.68293 -80.10213 55 ft 159 kts 90°
2026-05-04 00:17 26.68250 -80.09044 24 ft 128 kts 93°
2026-05-04 00:17 26.68220 -80.08358 22 ft 53 kts 92°
2026-05-04 00:17 26.68209 -80.08081 21 ft 20 kts 66°
2026-05-04 00:17 26.68269 -80.08035 21 ft 0 kts
2026-05-04 00:19 26.68270 -80.08035 21 ft 1 kts
2026-05-04 00:19 26.68296 -80.08031 21 ft 5 kts
2026-05-04 00:19 26.68329 -80.08027 21 ft 6 kts
2026-05-04 00:20 26.68388 -80.08056 21 ft 12 kts 293°
2026-05-04 00:20 26.68398 -80.08159 21 ft 19 kts 272°
2026-05-04 00:20 26.68405 -80.08318 22 ft 20 kts 273°
2026-05-04 00:20 26.68417 -80.08472 22 ft 20 kts 282°
2026-05-04 00:21 26.68433 -80.08620 22 ft 19 kts 270°
2026-05-04 00:21 26.68436 -80.08764 23 ft 18 kts 273°
2026-05-04 00:21 26.68443 -80.08903 23 ft 18 kts 274°
2026-05-04 00:21 26.68450 -80.09037 23 ft 16 kts 272°
2026-05-04 00:22 26.68500 -80.09096 23 ft 11 kts 359°
2026-05-04 00:22 26.68575 -80.09091 23 ft 11 kts
2026-05-04 00:22 26.68586 -80.09090 23 ft 0 kts
2026-05-04 00:22 26.68590 -80.09089 23 ft 5 kts
2026-05-04 00:23 26.68662 -80.09114 23 ft 13 kts 298°
2026-05-04 00:23 26.68693 -80.09181 23 ft 6 kts 318°
2026-05-04 00:23 26.68717 -80.09202 23 ft 0 kts 320°